Tracking 25709 objects as of 24-May-2022
HD Live streaming from Space Station
objects crossing your sky now

COSMOS 1275 DEB

Track COSMOS 1275 DEB now!
10-day predictions


NORAD ID: 13473
Int'l Code: 1981-053FV
Perigee: 824.3 km
Apogee: 892.4 km
Inclination: 82.8 °
Period: 102.0 minutes
Semi major axis: 7229 km
RCS: 0.033 m2 (small)
Launch date: June 4, 1981
Source: Commonwealth of Independent States (former USSR) (CIS)
Launch site: PLESETSK MISSILE AND SPACE COMPLEX (PKMTR)

Note: This is SATELLITE DEBRIS
aabbcc
Your satellite tracking list
Your tracking list is empty




NASA's NSSDC Master Catalog

Two Line Element Set (TLE):
1 13473U 81053FV  22144.34445699  .00002649  00000-0  14140-2 0  9995
2 13473  82.8362  94.1576 0047137 163.5973 319.9634 14.12392254 37320
Source of the keplerian elements: AFSPC